Regional Weather Roundup
Issued by NWS Charleston, WV

Home | Current Version | Previous Version | Text Only | Print | Product List | Glossary Off
Versions: 1 2 3 4 5 6 7 8 9 10 11 12 13 14 15 16 17 18 19 20 21 22 23 24 25 26 27 28 29 30 31 32 33 34 35 36 37 38 39 40 41 42 43 44 45 46 47 48 49 50

000
ASUS41 KRLX 180210
RWRRLX
West Virginia Regional Weather Roundup
National Weather Service Charleston WV
900 PM EST SUN DEC 17 2017

Note: "fair" indicates few or no clouds below 12,000 feet with no
significant weather and/or obstructions to visibility.

WVZ003-180300-
Northern Panhandle of West Virginia

CITY           SKY/WX    TMP DP  RH WIND       PRES   REMARKS
WHEELING       CLOUDY    37  32  82 SE3       30.10F
$$

WVZ009-180300-
Northwest West Virginia

CITY           SKY/WX    TMP DP  RH WIND       PRES   REMARKS
PARKERSBURG    CLOUDY    43  29  57 S5        30.15S
$$

WVZ006-180300-
Western West Virginia

CITY           SKY/WX    TMP DP  RH WIND       PRES   REMARKS
HUNTINGTON     CLOUDY    39  37  92 S3        30.14S
$$

WVZ015-180300-
West Central West Virginia

CITY           SKY/WX    TMP DP  RH WIND       PRES   REMARKS
CHARLESTON     CLOUDY    40  35  83 CALM      30.15S
$$

WVZ022-031-180300-
North Central West Virginia

CITY           SKY/WX    TMP DP  RH WIND       PRES   REMARKS
CLARKSBURG     CLOUDY    43  29  57 S5        30.13F
MORGANTOWN     CLOUDY    39  30  70 CALM      30.13F
$$

WVZ025-035-042-045-180300-
Southern West Virginia

CITY           SKY/WX    TMP DP  RH WIND       PRES   REMARKS
BECKLEY        CLOUDY    37  33  85 S3        30.11R
LOGAN          CLOUDY    37  36  93 CALM      30.14R
BLUEFIELD      CLOUDY    36  29  75 CALM      30.12S
LEWISBURG      CLOUDY    35  33  93 CALM      30.13S
$$

WVZ047-180300-
Northern Mountains of West Virginia

CITY           SKY/WX    TMP DP  RH WIND       PRES   REMARKS
ELKINS         CLOUDY    36  32  85 CALM      30.12S
$$

WVZ052-180300-
Eastern Panhandle of West Virginia

CITY           SKY/WX    TMP DP  RH WIND       PRES   REMARKS
MARTINSBURG    CLOUDY    41  32  70 N3        30.13F
PETERSBURG     CLOUDY    38  34  84 CALM      30.14S
$$



USA.gov is the U.S. government's official web portal to all federal, state and local government web resources and services.